• In Belarus
  • List of Countries
  • For 7 days
  • Water Temperature
  • Weather Map
  • Weather Widgets
  • user-avatar
    Login

    Hourly Weather Qala i Naw

    Today, 27 January, Monday

    Time Temperature Precipitation Wind Pressure Humidity
    00:00 +1°C° 0 mm 0 mps 681 mmHg 78%
    01:00 +1°C° 0 mm 0 mps 681 mmHg 78%
    02:00 +1°C° 0 mm 0 mps 681 mmHg 80%
    03:00 0°C° 0 mm 0 mps 681 mmHg 81%
    04:00 0°C° 0 mm 0 mps 682 mmHg 80%
    05:00 0°C° 0 mm 0 mps 682 mmHg 78%
    06:00 +1°C° 0 mm 1 mps 683 mmHg 77%
    07:00 +1°C° 0 mm 1 mps 683 mmHg 75%
    08:00 +2°C° 0 mm 1 mps 683 mmHg 71%
    09:00 +3°C° 0 mm 1 mps 684 mmHg 68%
    10:00 +4°C° 0 mm 1 mps 684 mmHg 64%
    11:00 +5°C° 0 mm 1 mps 684 mmHg 64%
    12:00 +4°C° 0 mm 2 mps 684 mmHg 64%
    13:00 +5°C° 0 mm 2 mps 684 mmHg 64%
    14:00 +4°C° 0 mm 2 mps 684 mmHg 67%
    15:00 +3°C° 0 mm 3 mps 684 mmHg 70%
    16:00 +3°C° 0 mm 3 mps 684 mmHg 73%
    17:00 +3°C° 0.1 mm 3 mps 685 mmHg 76%
    18:00 +2°C° 0.1 mm 3 mps 685 mmHg 79%
    19:00 +3°C° 0.1 mm 2 mps 686 mmHg 82%
    20:00 +2°C° 0.1 mm 2 mps 686 mmHg 85%
    21:00 +2°C° 0.1 mm 2 mps 686 mmHg 87%
    22:00 +1°C° 0.1 mm 2 mps 686 mmHg 89%
    23:00 +2°C° 0 mm 1 mps 686 mmHg 89%

    Tomorrow, 28 January, Tuesday

    Time Temperature Precipitation Wind Pressure Humidity
    00:00 +2°C° 0 mm 1 mps 686 mmHg 89%
    01:00 +1°C° 0 mm 1 mps 686 mmHg 89%
    02:00 +1°C° 0 mm 1 mps 686 mmHg 87%
    03:00 +1°C° 0 mm 1 mps 686 mmHg 85%
    04:00 +1°C° 0 mm 1 mps 685 mmHg 84%
    05:00 0°C° 0 mm 1 mps 685 mmHg 82%
    06:00 0°C° 0 mm 1 mps 686 mmHg 79%
    07:00 0°C° 0 mm 1 mps 686 mmHg 77%
    08:00 +1°C° 0 mm 1 mps 686 mmHg 73%
    09:00 +2°C° 0 mm 1 mps 686 mmHg 68%
    10:00 +2°C° 0 mm 1 mps 685 mmHg 64%
    11:00 +3°C° 0 mm 1 mps 685 mmHg 61%
    12:00 +4°C° 0 mm 1 mps 684 mmHg 58%
    13:00 +4°C° 0 mm 1 mps 684 mmHg 55%
    14:00 +4°C° 0 mm 1 mps 684 mmHg 55%
    15:00 +4°C° 0 mm 1 mps 684 mmHg 56%
    16:00 +4°C° 0 mm 1 mps 683 mmHg 56%
    17:00 +3°C° 0 mm 1 mps 684 mmHg 60%
    18:00 +2°C° 0 mm 1 mps 684 mmHg 64%
    19:00 +1°C° 0 mm 2 mps 684 mmHg 67%
    20:00 +1°C° 0 mm 1 mps 684 mmHg 65%
    21:00 +1°C° 0 mm 1 mps 684 mmHg 64%
    22:00 +1°C° 0 mm 1 mps 684 mmHg 62%
    23:00 +1°C° 0 mm 1 mps 684 mmHg 60%

    Day after tomorrow, 29 January, Wednesday

    Time Temperature Precipitation Wind Pressure Humidity
    00:00 +1°C° 0 mm 1 mps 684 mmHg 58%
    01:00 +1°C° 0 mm 1 mps 684 mmHg 57%
    02:00 0°C° 0 mm 1 mps 683 mmHg 54%
    03:00 0°C° 0 mm 1 mps 683 mmHg 52%
    04:00 0°C° 0 mm 1 mps 683 mmHg 50%
    05:00 0°C° 0 mm 1 mps 683 mmHg 47%
    06:00 -2°C° 0 mm 2 mps 683 mmHg 45%
    07:00 -2°C° 0 mm 2 mps 683 mmHg 42%
    08:00 +1°C° 0 mm 2 mps 683 mmHg 40%
    09:00 +2°C° 0 mm 2 mps 683 mmHg 38%
    10:00 +3°C° 0 mm 2 mps 683 mmHg 36%
    11:00 +5°C° 0 mm 1 mps 683 mmHg 37%
    12:00 +6°C° 0 mm 1 mps 682 mmHg 38%
    13:00 +7°C° 0 mm 1 mps 682 mmHg 39%
    14:00 +7°C° 0 mm 1 mps 682 mmHg 40%
    15:00 +7°C° 0 mm 1 mps 682 mmHg 40%
    16:00 +7°C° 0 mm 1 mps 681 mmHg 41%
    17:00 +5°C° 0 mm 2 mps 682 mmHg 42%
    18:00 +4°C° 0 mm 2 mps 682 mmHg 43%
    19:00 +3°C° 0 mm 2 mps 682 mmHg 43%
    20:00 +2°C° 0 mm 3 mps 682 mmHg 42%
    21:00 +1°C° 0 mm 3 mps 682 mmHg 41%
    22:00 +1°C° 0 mm 3 mps 682 mmHg 40%
    23:00 +1°C° 0 mm 3 mps 682 mmHg 39%

    30 January, Thursday

    Time Temperature Precipitation Wind Pressure Humidity
    00:00 +1°C° 0 mm 3 mps 682 mmHg 39%
    01:00 +1°C° 0 mm 3 mps 681 mmHg 38%
    02:00 +1°C° 0 mm 3 mps 681 mmHg 38%
    03:00 +1°C° 0 mm 3 mps 681 mmHg 38%
    04:00 +1°C° 0 mm 3 mps 681 mmHg 38%
    05:00 +1°C° 0 mm 3 mps 680 mmHg 37%
    06:00 +1°C° 0 mm 3 mps 680 mmHg 36%
    07:00 +1°C° 0 mm 3 mps 680 mmHg 36%
    08:00 +2°C° 0 mm 3 mps 681 mmHg 35%
    09:00 +4°C° 0 mm 3 mps 681 mmHg 34%
    10:00 +5°C° 0 mm 3 mps 681 mmHg 34%
    11:00 +7°C° 0 mm 2 mps 680 mmHg 35%
    12:00 +8°C° 0 mm 2 mps 680 mmHg 37%
    13:00 +10°C° 0 mm 1 mps 679 mmHg 39%
    14:00 +9°C° 0 mm 1 mps 679 mmHg 41%
    15:00 +9°C° 0 mm 1 mps 679 mmHg 42%
    16:00 +9°C° 0 mm 1 mps 679 mmHg 44%
    17:00 +8°C° 0 mm 1 mps 679 mmHg 46%
    18:00 +6°C° 0 mm 1 mps 680 mmHg 48%
    19:00 +5°C° 0 mm 1 mps 680 mmHg 50%
    20:00 +5°C° 0 mm 1 mps 680 mmHg 51%
    21:00 +5°C° 0 mm 1 mps 680 mmHg 51%
    22:00 +5°C° 0 mm 1 mps 680 mmHg 52%
    23:00 +5°C° 0 mm 1 mps 680 mmHg 52%

    31 January, Friday

    Time Temperature Precipitation Wind Pressure Humidity
    00:00 +5°C° 0 mm 1 mps 680 mmHg 52%
    01:00 +4°C° 0 mm 1 mps 680 mmHg 52%
    02:00 +4°C° 0 mm 1 mps 680 mmHg 52%
    03:00 +3°C° 0 mm 2 mps 680 mmHg 52%
    04:00 +3°C° 0 mm 2 mps 680 mmHg 52%
    05:00 +3°C° 0 mm 2 mps 680 mmHg 51%
    06:00 +2°C° 0 mm 2 mps 681 mmHg 51%
    07:00 +2°C° 0 mm 2 mps 681 mmHg 51%
    08:00 +4°C° 0 mm 2 mps 681 mmHg 49%
    09:00 +6°C° 0 mm 2 mps 682 mmHg 47%
    10:00 +7°C° 0 mm 2 mps 682 mmHg 45%
    11:00 +8°C° 0 mm 2 mps 681 mmHg 45%
    12:00 +9°C° 0 mm 2 mps 681 mmHg 45%
    13:00 +10°C° 0 mm 2 mps 680 mmHg 45%
    14:00 +10°C° 0 mm 2 mps 680 mmHg 45%
    15:00 +9°C° 0 mm 2 mps 680 mmHg 45%
    16:00 +9°C° 0 mm 2 mps 680 mmHg 45%
    17:00 +8°C° 0 mm 2 mps 680 mmHg 47%
    18:00 +7°C° 0 mm 3 mps 680 mmHg 49%
    19:00 +4°C° 0 mm 3 mps 681 mmHg 52%
    20:00 +4°C° 0 mm 3 mps 681 mmHg 52%
    21:00 +4°C° 0 mm 3 mps 681 mmHg 52%
    22:00 +3°C° 0 mm 3 mps 681 mmHg 52%
    23:00 +3°C° 0 mm 3 mps 681 mmHg 52%

    1 February, Saturday

    Time Temperature Precipitation Wind Pressure Humidity
    00:00 +3°C° 0 mm 4 mps 681 mmHg 51%
    01:00 +1°C° 0 mm 4 mps 681 mmHg 50%
    02:00 +1°C° 0 mm 4 mps 681 mmHg 49%
    03:00 +1°C° 0 mm 4 mps 680 mmHg 48%
    04:00 +1°C° 0 mm 4 mps 680 mmHg 47%
    05:00 +1°C° 0 mm 4 mps 681 mmHg 46%
    06:00 +1°C° 0 mm 4 mps 681 mmHg 45%
    07:00 +1°C° 0 mm 4 mps 681 mmHg 44%
    08:00 +4°C° 0 mm 4 mps 681 mmHg 42%
    09:00 +5°C° 0 mm 5 mps 681 mmHg 40%
    10:00 +7°C° 0 mm 5 mps 681 mmHg 38%
    11:00 +8°C° 0 mm 4 mps 681 mmHg 38%
    12:00 +10°C° 0 mm 4 mps 681 mmHg 38%
    13:00 +12°C° 0 mm 4 mps 680 mmHg 38%
    14:00 +11°C° 0 mm 4 mps 680 mmHg 39%
    15:00 +11°C° 0 mm 3 mps 680 mmHg 40%
    16:00 +11°C° 0 mm 3 mps 680 mmHg 41%
    17:00 +9°C° 0 mm 3 mps 680 mmHg 42%
    18:00 +8°C° 0 mm 3 mps 680 mmHg 42%
    19:00 +7°C° 0 mm 3 mps 680 mmHg 42%
    20:00 +5°C° 0 mm 3 mps 680 mmHg 41%
    21:00 +5°C° 0 mm 3 mps 680 mmHg 40%
    22:00 +5°C° 0 mm 3 mps 680 mmHg 39%
    23:00 +4°C° 0 mm 3 mps 680 mmHg 39%
    Show more